Alpena, MI

5:32 AM EDT on July 25, 2017 (GMT -0400)
Alpena County Regional

Weather History for KAPN - January, 2014

Change the Weather History Date:

Thursday, January 9, 2014

  Actual Average Record
Temperature  
Mean Temperature 3 °F 20 °F  
Max Temperature 18 °F 27 °F 46 °F (2002)
Min Temperature -13 °F 12 °F -19 °F (1977)
Degree Days  
Heating Degree Days 62 45  
Month to date heating degree days 530 403  
Since 1 July heating degree days 3872 3464  
Moisture  
Dew Point 0 °F    
Average Humidity 71    
Maximum Humidity 87    
Minimum Humidity 54    
Precipitation  
Precipitation T in 0.06 in 0.49 in (1964)
Month to date precipitation 0.32 0.52  
Year to date precipitation 0.32 0.52  
Snow  
Snow T in 0.70 in 7.70 in (1969)
Month to date snowfall 4.0 6.2  
Since 1 July snowfall 31.0 33.5  
Snow Depth 10.00 in    
Sea Level Pressure  
Sea Level Pressure 30.47 in    
Wind  
Wind Speed 6 mph (SSW)    
Max Wind Speed 15 mph    
Max Gust Speed 18 mph    
Visibility 9 miles    
Events      
T = Trace of Precipitation, MM = Missing Value Source: NWS Daily Summary

Daily Weather History Graph

Daily Weather History Graph

Search for Another Location

Airport or City:

Trip Planner

Search our weather history database for the weather conditions in past years. The results will help you decide how hot, cold, wet, or windy it might be!

Date:

Astronomy

Jan. 09, 2014 Rise Set
Actual Time 8:11 AM EST 5:11 PM EST
Civil Twilight 7:38 AM EST 5:44 PM EST
Nautical Twilight 7:01 AM EST 6:21 PM EST
Astronomical Twilight 6:26 AM EST 6:56 PM EST
Moon 12:43 PM EST (1/9) 2:11 AM EST (1/9)
Length of Visible Light 10h 06m
Length of Day
8h 59m
Waxing Gibbous, 66% of the Moon is Illuminated
Jan 9
Waxing Gibbous
Jan 15
Full
Jan 24
Last Quarter
Jan 30
New
Feb 6
First Quarter

Hourly Weather History & Observations

Time (EST) Temp. Windchill Dew Point Humidity Pressure Visibility Wind Dir Wind Speed Gust Speed Precip Events Conditions
12:54 AM 6.1 °F -2.8 °F 1.9 °F 83% 30.48 in 10.0 mi SW 4.6 mph - N/A   Partly Cloudy
1:54 AM 6.1 °F -4.3 °F 1.9 °F 83% 30.49 in 10.0 mi SW 5.8 mph - N/A   Clear
2:54 AM 5.0 °F -5.6 °F 1.0 °F 84% 30.51 in 10.0 mi SW 5.8 mph - N/A   Clear
3:54 AM 5.0 °F -4.1 °F 1.0 °F 84% 30.53 in 10.0 mi SW 4.6 mph - N/A   Clear
4:54 AM 3.0 °F -6.4 °F -0.9 °F 84% 30.53 in 10.0 mi SW 4.6 mph - N/A   Clear
5:54 AM -2.9 °F -11.2 °F -6.0 °F 87% 30.53 in 9.0 mi SW 3.5 mph - N/A   Clear
6:40 AM -7.1 °F - -11.0 °F 83% 30.48 in 1.8 mi Calm Calm - N/A   Clear
6:54 AM -6.0 °F - -9.0 °F 87% 30.55 in 3.0 mi Calm Calm - N/A   Clear
7:54 AM -9.9 °F - -14.1 °F 82% 30.55 in 10.0 mi Calm Calm - N/A   Clear
8:54 AM -8.0 °F -16.9 °F -11.0 °F 86% 30.57 in 10.0 mi SSW 3.5 mph - N/A   Clear
9:54 AM 5.0 °F -6.9 °F 1.0 °F 84% 30.58 in 10.0 mi SW 6.9 mph - N/A   Clear
10:54 AM 9.0 °F -3.2 °F 3.0 °F 77% 30.58 in 10.0 mi SSW 8.1 mph - 0.00 in   Clear
11:54 AM 10.9 °F -4.7 °F 3.0 °F 70% 30.53 in 10.0 mi South 13.8 mph - N/A   Clear
12:54 PM 12.9 °F 2.6 °F 3.9 °F 67% 30.47 in 10.0 mi South 6.9 mph - N/A   Clear
1:54 PM 16.0 °F 5.3 °F 5.0 °F 62% 30.44 in 10.0 mi South 8.1 mph - N/A   Clear
2:54 PM 17.1 °F 5.0 °F 3.9 °F 56% 30.42 in 10.0 mi South 10.4 mph - N/A   Clear
3:54 PM 16.0 °F 2.9 °F 3.0 °F 57% 30.41 in 10.0 mi South 11.5 mph - N/A   Clear
4:54 PM 12.9 °F 0.7 °F 1.0 °F 59% 30.41 in 10.0 mi South 9.2 mph - N/A   Clear
6:54 PM 8.1 °F -4.3 °F -0.0 °F 70% 30.40 in 10.0 mi South 8.1 mph - N/A   Clear
7:54 PM 8.1 °F -5.3 °F 1.0 °F 73% 30.39 in 10.0 mi South 9.2 mph - N/A   Clear
8:54 PM 10.0 °F 0.4 °F 3.0 °F 73% 30.37 in 10.0 mi South 5.8 mph - N/A   Overcast
9:54 PM 12.0 °F 2.7 °F 3.9 °F 70% 30.35 in 10.0 mi South 5.8 mph - N/A   Overcast
10:54 PM 12.0 °F 0.5 °F 5.0 °F 73% 30.32 in 10.0 mi South 8.1 mph - N/A   Overcast
11:02 PM 12.0 °F 1.5 °F 5.0 °F 73% 30.27 in 10.0 mi South 6.9 mph - N/A   Overcast
11:54 PM 10.0 °F 1.8 °F 3.9 °F 76% 30.30 in 10.0 mi South 4.6 mph - N/A   Mostly Cloudy